• En Estados Unidos
  • Lista de países
  • Para 7 días
  • Temperatura del agua
  • Mapa Satelital
  • El tiempo en el mapa
  • Informadores
  • user-avatar
    Iniciar sesión

    Tiempo cada hora Benguela

    Hoy, 25 Septiembre, Martes

    Tiempo Temperatura Precipitaciones Viento Presión Humedad
    00:00 +25°C° 0 mm 2 mps 759 mmHg 84%
    01:00 +25°C° 0 mm 2 mps 759 mmHg 85%
    02:00 +25°C° 0 mm 2 mps 759 mmHg 86%
    03:00 +25°C° 0 mm 2 mps 759 mmHg 88%
    04:00 +24°C° 0 mm 1 mps 758 mmHg 89%
    05:00 +25°C° 0 mm 1 mps 759 mmHg 87%
    06:00 +25°C° 0 mm 1 mps 759 mmHg 85%
    07:00 +26°C° 0 mm 1 mps 759 mmHg 83%
    08:00 +28°C° 0 mm 1 mps 759 mmHg 72%
    09:00 +30°C° 0 mm 2 mps 760 mmHg 62%
    10:00 +34°C° 0 mm 2 mps 760 mmHg 51%
    11:00 +34°C° 0 mm 3 mps 759 mmHg 50%
    12:00 +35°C° 0 mm 3 mps 758 mmHg 48%
    13:00 +35°C° 0 mm 4 mps 758 mmHg 47%
    14:00 +35°C° 0 mm 4 mps 757 mmHg 49%
    15:00 +34°C° 0 mm 4 mps 757 mmHg 52%
    16:00 +33°C° 0 mm 4 mps 757 mmHg 54%
    17:00 +30°C° 0 mm 4 mps 757 mmHg 61%
    18:00 +29°C° 0 mm 3 mps 758 mmHg 67%
    19:00 +27°C° 0 mm 3 mps 758 mmHg 74%
    20:00 +27°C° 0 mm 3 mps 759 mmHg 77%
    21:00 +26°C° 0 mm 2 mps 759 mmHg 80%
    22:00 +26°C° 0 mm 2 mps 760 mmHg 84%
    23:00 +25°C° 0 mm 2 mps 760 mmHg 85%

    Mañana, 26 Septiembre, Miércoles

    Tiempo Temperatura Precipitaciones Viento Presión Humedad
    00:00 +25°C° 0 mm 3 mps 760 mmHg 85%
    01:00 +25°C° 0 mm 3 mps 760 mmHg 86%
    02:00 +25°C° 0 mm 2 mps 759 mmHg 87%
    03:00 +25°C° 0 mm 2 mps 759 mmHg 87%
    04:00 +24°C° 0 mm 1 mps 759 mmHg 87%
    05:00 +25°C° 0 mm 1 mps 759 mmHg 84%
    06:00 +25°C° 0 mm 1 mps 759 mmHg 82%
    07:00 +26°C° 0 mm 1 mps 760 mmHg 79%
    08:00 +29°C° 0 mm 1 mps 760 mmHg 67%
    09:00 +32°C° 0 mm 2 mps 759 mmHg 54%
    10:00 +36°C° 0 mm 2 mps 759 mmHg 42%
    11:00 +37°C° 0 mm 3 mps 758 mmHg 40%
    12:00 +38°C° 0 mm 4 mps 758 mmHg 38%
    13:00 +39°C° 0 mm 5 mps 757 mmHg 36%
    14:00 +37°C° 0 mm 5 mps 756 mmHg 42%
    15:00 +35°C° 0 mm 5 mps 756 mmHg 47%
    16:00 +33°C° 0 mm 5 mps 756 mmHg 52%
    17:00 +30°C° 0 mm 4 mps 756 mmHg 59%
    18:00 +29°C° 0 mm 3 mps 757 mmHg 65%
    19:00 +27°C° 0 mm 3 mps 758 mmHg 72%
    20:00 +27°C° 0 mm 2 mps 758 mmHg 73%
    21:00 +27°C° 0 mm 2 mps 759 mmHg 73%
    22:00 +26°C° 0 mm 1 mps 760 mmHg 74%
    23:00 +26°C° 0 mm 1 mps 759 mmHg 74%

    Pasado mañana, 27 Septiembre, Jueves

    Tiempo Temperatura Precipitaciones Viento Presión Humedad
    00:00 +26°C° 0 mm 1 mps 759 mmHg 74%
    01:00 +26°C° 0 mm 1 mps 758 mmHg 74%
    02:00 +26°C° 0 mm 1 mps 758 mmHg 75%
    03:00 +25°C° 0 mm 1 mps 758 mmHg 76%
    04:00 +25°C° 0 mm 1 mps 758 mmHg 77%
    05:00 +26°C° 0 mm 1 mps 758 mmHg 74%
    06:00 +26°C° 0 mm 1 mps 759 mmHg 71%
    07:00 +27°C° 0 mm 1 mps 759 mmHg 68%
    08:00 +29°C° 0 mm 1 mps 759 mmHg 59%
    09:00 +32°C° 0 mm 2 mps 759 mmHg 49%
    10:00 +36°C° 0 mm 2 mps 759 mmHg 40%
    11:00 +36°C° 0 mm 3 mps 758 mmHg 39%
    12:00 +37°C° 0 mm 3 mps 757 mmHg 38%
    13:00 +37°C° 0 mm 4 mps 756 mmHg 38%
    14:00 +36°C° 0 mm 4 mps 756 mmHg 41%
    15:00 +35°C° 0 mm 4 mps 755 mmHg 44%
    16:00 +34°C° 0 mm 4 mps 755 mmHg 47%
    17:00 +32°C° 0 mm 4 mps 756 mmHg 53%
    18:00 +29°C° 0 mm 3 mps 757 mmHg 60%
    19:00 +28°C° 0 mm 2 mps 758 mmHg 66%
    20:00 +27°C° 0 mm 2 mps 758 mmHg 69%
    21:00 +26°C° 0 mm 2 mps 759 mmHg 73%
    22:00 +26°C° 0 mm 1 mps 759 mmHg 76%
    23:00 +26°C° 0 mm 2 mps 759 mmHg 75%

    28 Septiembre, Viernes

    Tiempo Temperatura Precipitaciones Viento Presión Humedad
    00:00 +26°C° 0 mm 2 mps 758 mmHg 74%
    01:00 +26°C° 0 mm 2 mps 758 mmHg 73%
    02:00 +26°C° 0 mm 2 mps 758 mmHg 73%
    03:00 +25°C° 0 mm 2 mps 758 mmHg 74%
    04:00 +25°C° 0 mm 1 mps 757 mmHg 74%
    05:00 +25°C° 0 mm 1 mps 758 mmHg 74%
    06:00 +26°C° 0 mm 1 mps 758 mmHg 74%
    07:00 +26°C° 0 mm 1 mps 758 mmHg 74%
    08:00 +28°C° 0 mm 1 mps 758 mmHg 65%
    09:00 +30°C° 0 mm 2 mps 758 mmHg 55%
    10:00 +34°C° 0 mm 2 mps 758 mmHg 45%
    11:00 +35°C° 0 mm 3 mps 757 mmHg 44%
    12:00 +35°C° 0 mm 3 mps 756 mmHg 43%
    13:00 +36°C° 0 mm 4 mps 755 mmHg 41%
    14:00 +35°C° 0 mm 4 mps 755 mmHg 44%
    15:00 +34°C° 0 mm 4 mps 755 mmHg 47%
    16:00 +33°C° 0 mm 4 mps 755 mmHg 50%
    17:00 +30°C° 0 mm 3 mps 756 mmHg 58%
    18:00 +29°C° 0 mm 2 mps 756 mmHg 65%
    19:00 +27°C° 0 mm 2 mps 757 mmHg 73%
    20:00 +27°C° 0 mm 1 mps 758 mmHg 74%
    21:00 +26°C° 0 mm 1 mps 758 mmHg 76%
    22:00 +26°C° 0 mm 1 mps 758 mmHg 78%
    23:00 +26°C° 0 mm 1 mps 758 mmHg 77%

    29 Septiembre, Sábado

    Tiempo Temperatura Precipitaciones Viento Presión Humedad
    00:00 +26°C° 0 mm 1 mps 758 mmHg 76%
    01:00 +26°C° 0 mm 1 mps 757 mmHg 75%
    02:00 +26°C° 0 mm 1 mps 757 mmHg 78%
    03:00 +25°C° 0 mm 2 mps 757 mmHg 80%
    04:00 +25°C° 0 mm 3 mps 757 mmHg 82%
    05:00 +25°C° 0 mm 2 mps 758 mmHg 83%
    06:00 +26°C° 0 mm 2 mps 758 mmHg 83%
    07:00 +26°C° 0 mm 1 mps 758 mmHg 84%
    08:00 +28°C° 0 mm 2 mps 758 mmHg 72%
    09:00 +31°C° 0 mm 3 mps 758 mmHg 60%
    10:00 +35°C° 0 mm 4 mps 758 mmHg 49%
    11:00 +35°C° 0 mm 4 mps 757 mmHg 48%
    12:00 +35°C° 0 mm 4 mps 757 mmHg 48%
    13:00 +36°C° 0 mm 5 mps 756 mmHg 48%
    14:00 +35°C° 0 mm 4 mps 756 mmHg 51%
    15:00 +34°C° 0 mm 4 mps 756 mmHg 53%
    16:00 +33°C° 0 mm 4 mps 756 mmHg 56%
    17:00 +31°C° 0 mm 3 mps 756 mmHg 63%
    18:00 +29°C° 0 mm 3 mps 757 mmHg 70%
    19:00 +27°C° 0 mm 2 mps 758 mmHg 77%
    20:00 +27°C° 0.1 mm 2 mps 759 mmHg 77%
    21:00 +27°C° 0.1 mm 2 mps 759 mmHg 76%
    22:00 +27°C° 0.1 mm 1 mps 759 mmHg 76%
    23:00 +27°C° 0.1 mm 1 mps 759 mmHg 76%

    30 Septiembre, Domingo

    Tiempo Temperatura Precipitaciones Viento Presión Humedad
    00:00 +27°C° 0.1 mm 1 mps 759 mmHg 76%
    01:00 +27°C° 0.1 mm 1 mps 758 mmHg 75%
    02:00 +27°C° 0.1 mm 1 mps 758 mmHg 77%
    03:00 +26°C° 0.1 mm 1 mps 758 mmHg 79%
    04:00 +26°C° 0.1 mm 1 mps 758 mmHg 81%
    05:00 +26°C° 0 mm 1 mps 758 mmHg 78%
    06:00 +27°C° 0 mm 1 mps 759 mmHg 76%
    07:00 +27°C° 0 mm 1 mps 759 mmHg 73%
    08:00 +29°C° 0 mm 1 mps 759 mmHg 65%
    09:00 +32°C° 0 mm 1 mps 759 mmHg 57%
    10:00 +35°C° 0 mm 2 mps 759 mmHg 49%
    11:00 +36°C° 0 mm 3 mps 758 mmHg 46%
    12:00 +37°C° 0 mm 4 mps 757 mmHg 44%
    13:00 +39°C° 0 mm 5 mps 756 mmHg 41%
    14:00 +37°C° 0 mm 4 mps 756 mmHg 44%
    15:00 +35°C° 0 mm 4 mps 756 mmHg 48%
    16:00 +34°C° 0 mm 4 mps 756 mmHg 51%
    17:00 +33°C° 0.5 mm 3 mps 757 mmHg 58%
    18:00 +30°C° 0.5 mm 2 mps 757 mmHg 66%
    19:00 +28°C° 0.5 mm 2 mps 758 mmHg 74%
    20:00 +28°C° 0.5 mm 2 mps 759 mmHg 75%
    21:00 +27°C° 0.5 mm 2 mps 759 mmHg 77%
    22:00 +27°C° 0.5 mm 2 mps 759 mmHg 78%
    23:00 +27°C° 0.1 mm 2 mps 759 mmHg 78%
    Mostrar más